Terminal Aerodrome Forecast
Issued by NWS Houston/Galveston TX

Home | Current Version | Previous Version | Text Only | Print | Product List | Glossary On
Versions: 1 2 3 4 5 6 7 8 9 10 11 12 13 14 15 16 17 18 19 20 21 22 23 24 25 26 27 28 29 30 31 32 33 34 35 36 37 38 39 40 41 42 43 44 45 46 47 48 49 50
000
FTUS44 KHGX 190900 AAA
TAFHOU
TAF AMD
KHOU 190900Z 1909/2006 07010KT 6SM RA VCTS SCT005 OVC025CB
      TEMPO 1909/1910 3SM -TSRA OVC005CB
     FM191000 02008KT 4SM -RA OVC009
     FM192000 01010KT P6SM VCSH SCT015 BKN020
     FM200300 36008KT P6SM BKN020 OVC050=

USA.gov is the U.S. government's official web portal to all federal, state and local government web resources and services.